Wind_Speed
13 15 17 18 19 20 24 25 24 26 25 21 19 20 23 23 22 18 19 18 17 16 12 9 11 14 19 20 18 17 16 17 18 17 17 18 20 20 17 23 30 38 41 41 43 41 39 39 39
8 10 12 14 17 19 20 22 25 23 24 20 22 20 20 18 18 17 19 20 16 14 13 13 10 10 12 13 17 20 20 19 18 20 18 19 21 23 23 21 22 29 35 40 41 45 44 42 41
2 5 8 10 13 16 17 20 21 23 24 24 23 17 15 13 15 15 15 15 18 20 17 15 14 13 14 14 13 15 18 20 20 22 20 21 22 22 26 26 25 25 29 34 40 42 47 46 44
5 5 6 8 11 15 17 18 20 19 18 24 25 23 16 10 12 12 13 13 12 11 15 16 17 18 18 18 18 18 17 20 22 21 23 24 26 27 26 27 30 27 26 29 33 37 43 47 49
7 8 9 10 13 15 18 20 19 20 19 20 25 20 16 12 15 11 13 13 13 13 13 15 15 16 16 18 20 23 24 22 24 27 25 25 27 31 29 29 28 32 29 29 29 33 37 44 49
10 12 13 13 15 16 19 20 23 22 20 20 27 21 16 18 20 18 14 15 15 15 15 15 18 21 21 22 22 23 24 32 30 30 31 29 29 30 33 33 31 29 32 32 32 31 33 37 43
16 18 18 20 20 19 22 22 25 24 24 22 26 22 22 25 19 19 19 18 18 19 19 20 21 21 23 26 27 29 28 27 37 37 35 36 35 33 33 35 36 36 32 34 35 35 34 33 37
19 20 21 23 23 20 22 22 27 24 23 25 28 25 27 27 24 23 22 21 21 22 23 24 25 27 27 28 29 31 32 32 33 39 40 39 39 39 37 37 40 40 39 36 36 38 38 37 37
21 22 24 25 24 21 23 24 29 25 26 27 25 29 30 30 29 26 25 25 25 26 26 29 31 32 33 33 35 35 34 33 36 36 43 44 44 44 43 42 42 46 44 43 39 37 40 41 40
23 23 24 24 24 25 25 26 31 30 27 27 30 30 31 32 32 29 29 28 30 30 32 34 35 34 37 38 39 40 39 37 37 39 44 45 47 49 50 49 48 49 51 51 46 43 41 41 43
23 24 25 26 27 27 29 29 31 32 29 32 34 33 33 34 34 34 34 35 34 34 36 36 37 38 40 43 42 42 41 42 43 44 45 49 53 54 55 55 53 52 55 56 54 50 46 42 44
23 24 25 26 27 28 30 33 34 32 34 33 34 36 37 38 36 37 38 37 39 41 40 40 43 44 46 47 44 43 42 45 47 50 53 53 57 58 59 60 57 57 57 58 58 56 52 48 44
24 24 25 27 28 30 32 35 38 35 32 32 36 37 39 40 39 41 42 43 44 44 45 46 48 49 51 50 49 48 47 49 51 54 59 61 64 64 66 65 62 60 61 58 58 58 58 52 49
28 26 24 26 28 31 33 35 37 34 33 35 36 38 42 40 41 44 46 47 47 48 51 51 54 54 57 56 54 55 55 56 57 59 63 69 71 71 72 71 70 66 63 63 62 60 58 56 53
27 26 25 27 28 28 31 32 37 38 35 35 35 39 41 42 43 49 49 53 51 53 53 54 57 60 61 61 58 61 62 63 63 65 68 72 73 74 77 77 77 75 71 68 66 65 62 55 56
29 28 27 26 27 26 29 33 39 41 38 39 38 42 46 47 48 51 54 51 54 57 58 59 62 64 65 66 69 68 69 70 72 75 72 72 73 76 79 80 81 79 77 73 73 70 67 62 60
32 32 33 34 33 31 32 32 40 44 44 44 45 47 47 49 49 53 52 57 57 59 60 63 66 67 70 73 75 75 74 76 79 76 76 78 82 87 89 90 87 88 83 79 72 70 69 66 65
36 37 36 38 42 40 40 38 45 47 46 48 50 50 50 52 49 55 59 62 63 61 65 69 73 75 77 79 79 78 78 80 81 83 85 86 87 90 92 93 92 91 94 86 78 76 78 70 69
40 38 39 36 37 41 43 45 49 50 50 51 52 53 54 53 55 58 63 62 63 66 69 73 75 78 82 82 82 82 83 87 88 89 87 88 88 91 92 94 94 93 93 91 87 81 83 68 74
42 44 42 43 45 44 47 48 50 51 52 54 53 55 53 55 55 62 66 65 66 67 70 73 77 79 81 82 84 88 92 92 91 87 86 91 93 94 91 81 83 89 96 92 90 88 75 83 75
43 48 48 49 50 48 50 52 50 48 53 52 54 56 57 57 60 66 65 65 67 68 71 76 78 79 80 84 87 90 89 87 89 86 91 90 71 61 59 58 62 69 80 75 77 81 83 66 74
46 48 52 51 52 55 54 59 54 52 55 56 59 58 62 64 64 65 65 67 67 71 75 77 78 78 81 87 90 89 88 89 87 89 88 62 58 51 47 54 58 58 79 73 72 80 79 94 60
49 52 55 56 57 57 51 56 53 55 56 56 56 59 61 63 66 67 66 66 69 73 76 77 78 79 84 89 87 88 88 88 94 92 73 52 45 42 44 44 49 52 82 84 79 82 82 82 77
55 55 58 60 59 60 58 59 59 60 62 61 63 63 63 66 67 66 66 68 72 74 74 76 76 80 86 84 85 87 89 92 92 90 56 48 39 39 40 39 43 48 88 85 80 84 74 90 68
58 60 64 67 66 62 60 65 60 64 63 64 62 64 66 66 67 67 68 71 71 72 75 74 77 82 83 85 87 85 87 94 97 77 49 44 40 40 40 41 45 44 90 88 73 90 68 83 76
62 60 65 70 63 59 62 66 67 63 64 64 64 68 70 69 68 69 71 70 70 72 71 73 80 84 83 84 83 86 92 94 91 58 46 39 40 47 39 39 43 46 83 88 72 75 87 72 62
62 65 67 69 63 63 63 64 71 68 66 64 68 71 69 70 69 70 73 69 71 71 72 78 84 84 81 83 83 86 93 94 71 50 50 50 49 43 47 43 39 47 76 87 79 76 86 87 54
64 67 70 70 67 68 69 69 73 67 65 65 69 70 69 69 66 70 69 70 70 70 75 82 83 81 82 83 84 90 93 95 56 49 51 56 61 54 46 52 46 48 69 81 79 81 82 96 81
68 70 74 70 71 71 76 75 69 67 64 69 70 69 68 65 65 70 68 68 68 71 78 81 80 80 83 85 86 91 90 81 55 55 67 67 64 58 53 50 47 35 61 75 76 78 77 78 75
73 73 72 67 67 71 71 79 65 64 64 69 70 69 65 63 68 70 68 68 68 73 79 79 79 80 85 87 89 92 92 75 58 60 64 54 49 47 53 52 46 38 45 78 75 88 88 89 89
Wind_Direction
56 51 43 33 33 23 27 29 26 28 29 30 27 23 28 22 21 14 19 23 18 12 2 347 351 5 3 359 3 353 350 348 345 341 315 294 293 293 286 271 261 254 253 251 250 252 252 248 248
51 45 38 27 16 7 12 20 22 18 21 23 25 27 29 23 8 6 7 7 5 3 350 347 338 318 310 328 339 338 341 333 335 331 326 325 300 286 285 280 275 264 258 253 249 250 252 250 249
10 19 21 12 2 0 7 9 18 13 10 11 15 25 20 18 357 350 351 356 346 338 340 329 329 325 319 317 309 312 314 313 321 324 317 314 313 309 284 280 278 273 264 260 253 246 250 251 250
297 329 351 343 340 348 355 358 4 10 8 354 360 12 11 352 346 341 331 331 329 321 315 321 321 316 313 309 310 300 293 300 297 297 302 305 308 309 308 293 276 276 273 264 260 254 244 247 250
309 322 328 329 329 335 337 343 346 355 353 349 345 5 356 348 332 329 318 312 311 309 297 290 292 291 295 296 301 308 296 284 281 284 282 286 289 296 299 299 297 278 271 270 265 260 252 244 246
312 320 319 316 313 323 323 335 331 341 345 343 338 352 340 327 330 327 313 297 300 300 296 286 281 283 286 283 285 287 296 297 283 276 275 274 274 278 285 289 287 290 277 268 266 264 262 253 245
306 309 310 310 312 319 320 325 319 335 341 334 333 338 323 324 325 320 309 296 283 291 289 282 281 280 284 292 290 285 284 295 289 279 271 272 274 275 275 279 281 281 282 273 265 263 262 260 253
298 300 301 303 306 310 308 313 312 331 333 325 328 321 324 324 320 317 310 303 296 298 295 295 295 297 294 298 289 290 290 293 287 285 276 271 271 271 271 271 274 274 276 275 270 264 260 258 257
298 298 299 301 300 301 302 307 311 321 323 325 318 315 319 317 315 313 307 304 305 302 301 300 305 302 301 300 295 289 285 283 282 280 280 273 270 270 270 267 268 268 269 271 270 268 264 260 257
306 304 299 298 298 301 304 306 308 314 320 322 316 314 311 314 313 309 306 307 307 305 307 306 305 302 302 300 295 295 287 283 279 279 274 275 274 275 271 268 264 264 266 268 267 266 265 263 259
312 306 304 304 303 305 305 304 306 309 319 321 315 313 312 314 312 308 308 308 307 305 301 301 299 298 301 300 293 290 286 278 275 274 270 267 272 273 271 269 264 260 260 263 265 265 264 264 261
320 313 309 308 307 304 304 305 301 309 318 316 311 312 312 312 308 306 305 306 308 309 308 306 303 300 301 302 295 290 284 281 273 268 268 269 268 269 268 267 263 261 260 258 260 263 263 261 261
331 325 318 314 307 302 303 303 302 311 314 312 312 311 309 307 305 306 305 305 306 307 308 307 302 298 295 295 294 290 286 279 275 270 264 263 263 265 265 262 259 261 260 259 256 259 262 262 259
333 334 325 318 310 307 306 306 307 309 309 312 309 307 305 304 304 305 304 303 303 305 308 310 307 300 298 298 297 295 290 284 276 268 265 263 263 261 261 263 259 259 257 259 257 257 261 261 260
332 333 328 318 312 310 305 303 302 303 310 307 307 304 303 305 303 305 306 305 303 306 309 308 306 302 298 294 293 294 290 286 280 274 269 263 261 261 262 259 260 259 257 256 255 253 254 257 261
331 329 324 314 305 300 298 298 299 302 306 309 312 313 312 313 313 310 308 306 305 306 307 306 305 301 300 302 301 296 292 291 286 281 273 268 263 260 256 255 259 259 258 255 254 252 249 252 259
331 332 330 326 315 305 300 302 301 306 312 318 316 316 318 319 317 310 308 305 305 306 304 305 306 306 304 303 299 297 294 290 285 278 272 268 265 263 261 259 257 258 257 255 251 250 248 252 256
333 332 334 330 322 318 313 310 306 307 311 317 316 320 320 322 318 313 311 309 308 307 308 310 311 308 306 302 299 296 294 289 285 280 278 277 276 273 269 264 260 255 255 252 252 246 247 240 248
333 329 325 328 320 314 311 308 305 308 314 317 319 318 323 323 316 314 311 310 310 310 311 310 308 306 303 301 299 295 293 289 287 291 293 290 284 277 270 263 257 252 250 249 244 244 244 248 237
329 324 323 324 316 313 311 311 310 313 313 312 315 316 322 322 316 316 315 313 311 310 310 309 307 305 303 300 300 297 295 297 301 304 301 296 291 286 279 269 258 252 249 248 238 239 233 243 242
319 321 321 319 315 314 315 311 311 315 315 318 316 317 320 322 319 318 314 312 311 310 310 309 308 305 304 301 299 299 304 309 308 309 306 303 293 282 263 262 254 243 230 221 229 231 228 232 231
315 318 318 317 317 317 320 311 314 316 317 319 321 321 320 318 316 314 315 314 313 312 311 310 308 306 304 304 303 309 312 314 311 309 312 295 291 260 263 267 271 248 213 207 205 217 223 229 222
313 317 320 316 315 312 323 314 316 320 321 324 323 322 318 317 317 316 315 314 314 312 312 311 308 306 305 305 312 315 317 315 313 316 310 303 281 260 264 274 274 243 212 204 207 204 218 224 228
315 315 317 313 312 311 315 315 317 316 323 324 320 320 318 318 318 315 315 315 314 314 313 309 306 306 305 312 317 318 317 317 317 320 307 305 270 264 274 281 275 248 209 204 210 204 214 218 223
317 317 318 315 316 314 313 311 320 319 327 322 320 317 317 318 317 316 316 314 314 312 308 307 307 305 310 317 319 318 318 319 321 315 305 307 267 268 277 282 279 252 210 204 195 202 205 214 226
316 316 320 317 312 308 312 313 317 319 322 319 319 317 319 318 316 314 313 313 311 308 309 308 307 308 314 318 320 319 320 324 321 303 296 299 295 264 273 282 279 246 220 200 199 202 205 205 212
313 314 318 317 307 306 310 316 316 323 320 320 316 316 316 316 316 313 312 312 308 309 310 309 308 312 317 319 321 319 321 322 317 294 291 292 299 281 261 270 282 248 217 212 205 195 203 207 208
313 311 316 314 307 310 309 314 315 321 318 317 314 313 314 314 312 308 310 308 309 310 311 310 313 316 318 321 321 320 325 325 310 301 293 283 289 284 263 256 265 242 222 212 205 199 205 212 214
312 311 311 307 308 310 309 311 320 317 318 313 311 311 313 312 308 307 308 307 307 309 312 314 315 317 320 322 321 321 328 327 314 314 312 299 288 278 254 244 249 252 224 218 202 198 200 211 212
308 309 309 303 306 303 311 306 317 314 313 308 307 310 312 309 306 305 307 308 307 311 313 316 316 318 323 322 322 325 329 325 316 318 321 308 292 272 242 237 236 236 235 206 195 202 202 202 208
Height
5872 5870 5869 5868 5871 5867 5864 5863 5861 5862 5861 5859 5856 5854 5853 5851 5850 5851 5846 5846 5845 5844 5843 5843 5843 5844 5841 5839 5838 5836 5834 5834 5832 5831 5829 5828 5826 5825 5825 5825 5824 5823 5825 5829 5831 5833 5835 5837 5840
5872 5871 5870 5868 5867 5865 5864 5863 5862 5861 5861 5859 5857 5856 5853 5852 5849 5847 5845 5844 5842 5842 5841 5839 5838 5838 5838 5838 5835 5835 5834 5832 5829 5828 5827 5825 5824 5821 5820 5820 5819 5819 5818 5820 5824 5826 5827 5830 5833
5870 5870 5870 5868 5866 5864 5862 5862 5863 5860 5859 5857 5856 5855 5853 5851 5848 5846 5845 5843 5841 5839 5839 5838 5837 5835 5832 5831 5832 5831 5829 5829 5826 5825 5823 5822 5820 5818 5816 5815 5814 5813 5813 5814 5815 5818 5820 5822 5825
5869 5870 5869 5868 5866 5863 5861 5860 5860 5860 5858 5855 5854 5853 5852 5850 5847 5844 5843 5842 5841 5840 5838 5834 5832 5831 5829 5829 5828 5827 5825 5823 5822 5821 5819 5817 5816 5814 5812 5810 5808 5807 5808 5807 5808 5810 5812 5814 5817
5867 5867 5867 5866 5864 5862 5859 5857 5856 5856 5855 5854 5851 5851 5848 5846 5843 5841 5839 5838 5837 5836 5834 5832 5830 5829 5828 5824 5822 5820 5819 5818 5817 5815 5813 5811 5809 5808 5807 5805 5804 5802 5801 5801 5801 5802 5803 5806 5808
5866 5865 5865 5863 5862 5860 5856 5855 5852 5853 5853 5851 5848 5848 5844 5840 5838 5835 5834 5833 5831 5830 5828 5826 5824 5823 5820 5819 5816 5813 5811 5809 5809 5807 5805 5804 5803 5800 5799 5798 5798 5796 5795 5795 5795 5794 5795 5798 5799
5863 5862 5861 5859 5857 5856 5854 5853 5848 5851 5850 5848 5845 5843 5839 5836 5835 5833 5831 5829 5827 5825 5823 5822 5820 5818 5815 5813 5811 5809 5806 5801 5799 5799 5797 5795 5794 5792 5791 5789 5789 5789 5788 5788 5788 5787 5788 5788 5790
5860 5859 5857 5855 5853 5853 5850 5848 5843 5846 5846 5843 5839 5836 5835 5833 5831 5828 5825 5823 5822 5819 5816 5815 5813 5811 5807 5805 5803 5800 5798 5796 5794 5790 5787 5786 5785 5783 5782 5781 5780 5779 5779 5779 5779 5780 5780 5780 5781
5856 5856 5852 5851 5848 5848 5846 5843 5838 5841 5841 5839 5836 5831 5830 5828 5825 5822 5819 5816 5815 5812 5809 5807 5804 5801 5799 5797 5794 5792 5789 5786 5784 5782 5778 5776 5775 5774 5772 5771 5770 5769 5768 5769 5770 5770 5771 5771 5772
5851 5850 5848 5847 5844 5842 5840 5838 5832 5834 5836 5834 5830 5828 5826 5822 5819 5817 5813 5810 5808 5804 5801 5798 5796 5793 5790 5787 5785 5782 5780 5776 5774 5771 5769 5766 5763 5762 5761 5760 5758 5758 5757 5758 5759 5760 5760 5761 5762
5846 5844 5842 5841 5838 5836 5833 5830 5827 5827 5829 5827 5823 5821 5818 5815 5812 5808 5805 5802 5799 5795 5791 5788 5785 5781 5779 5776 5772 5769 5766 5764 5761 5757 5756 5755 5750 5748 5748 5747 5746 5745 5744 5745 5745 5747 5749 5750 5752
5842 5840 5837 5835 5832 5829 5828 5824 5821 5823 5824 5821 5816 5814 5811 5808 5805 5800 5796 5793 5789 5786 5782 5778 5774 5771 5768 5764 5760 5755 5752 5749 5747 5744 5741 5738 5735 5734 5732 5732 5732 5731 5731 5731 5732 5733 5737 5738 5740
5836 5835 5832 5829 5827 5824 5821 5817 5814 5817 5817 5813 5809 5805 5802 5798 5794 5790 5786 5783 5779 5775 5772 5768 5764 5759 5754 5749 5743 5741 5737 5734 5731 5728 5726 5722 5719 5716 5714 5715 5716 5717 5716 5716 5717 5719 5722 5725 5728
5831 5830 5828 5824 5821 5818 5815 5809 5807 5809 5808 5805 5800 5796 5791 5788 5785 5779 5775 5772 5769 5765 5761 5757 5753 5747 5740 5735 5728 5724 5720 5717 5714 5711 5707 5704 5700 5699 5696 5695 5697 5699 5700 5701 5703 5704 5707 5711 5715
5827 5825 5822 5818 5815 5813 5808 5805 5798 5796 5798 5796 5794 5788 5784 5781 5777 5771 5767 5762 5757 5753 5749 5742 5737 5732 5726 5719 5711 5706 5702 5698 5695 5691 5686 5681 5678 5677 5676 5675 5676 5679 5681 5684 5685 5689 5693 5697 5701
5823 5820 5817 5814 5809 5807 5805 5800 5794 5791 5790 5788 5784 5779 5775 5771 5767 5760 5754 5749 5743 5738 5732 5727 5721 5715 5709 5703 5695 5689 5682 5678 5673 5667 5662 5658 5655 5652 5652 5653 5652 5655 5657 5662 5667 5671 5677 5682 5686
5818 5814 5809 5804 5800 5798 5795 5794 5785 5781 5779 5778 5775 5770 5766 5760 5754 5746 5740 5733 5729 5725 5719 5713 5704 5697 5690 5683 5676 5671 5664 5657 5648 5643 5638 5632 5626 5623 5622 5625 5630 5628 5633 5640 5648 5653 5660 5666 5672
5813 5808 5804 5798 5791 5787 5784 5782 5773 5770 5768 5766 5760 5757 5752 5747 5740 5733 5728 5722 5717 5710 5702 5693 5684 5675 5668 5661 5653 5646 5639 5631 5622 5614 5607 5600 5596 5593 5591 5594 5598 5602 5602 5614 5626 5632 5637 5644 5655
5803 5801 5796 5795 5788 5781 5776 5772 5765 5762 5758 5754 5751 5746 5741 5735 5728 5721 5714 5706 5699 5691 5682 5674 5664 5654 5645 5638 5629 5620 5613 5603 5594 5584 5577 5569 5561 5556 5553 5554 5558 5563 5570 5583 5599 5606 5615 5622 5631
5797 5791 5789 5786 5778 5774 5767 5763 5757 5754 5749 5745 5741 5735 5729 5722 5713 5705 5698 5691 5683 5675 5666 5657 5647 5635 5623 5614 5605 5591 5580 5572 5560 5557 5547 5532 5522 5513 5505 5505 5510 5519 5534 5548 5569 5584 5600 5606 5611
5791 5784 5779 5774 5767 5764 5757 5750 5749 5747 5740 5735 5728 5721 5714 5706 5697 5691 5683 5676 5668 5661 5651 5639 5627 5616 5605 5591 5582 5571 5558 5550 5539 5529 5515 5497 5482 5477 5473 5475 5478 5484 5497 5521 5539 5555 5575 5577 5578
5780 5777 5772 5766 5757 5748 5748 5734 5736 5732 5726 5721 5715 5708 5701 5693 5685 5676 5668 5660 5651 5642 5633 5622 5609 5597 5585 5569 5557 5543 5534 5525 5516 5503 5487 5471 5460 5457 5458 5458 5457 5461 5473 5490 5516 5531 5545 5557 5563
5771 5766 5758 5751 5745 5735 5739 5724 5723 5719 5713 5707 5698 5691 5684 5676 5668 5658 5651 5643 5635 5626 5616 5604 5592 5578 5565 5551 5535 5524 5514 5502 5489 5475 5461 5451 5443 5443 5443 5441 5437 5436 5449 5468 5488 5505 5524 5538 5549
5760 5756 5750 5739 5732 5723 5720 5712 5711 5703 5697 5691 5682 5675 5667 5660 5654 5644 5636 5627 5618 5607 5598 5588 5575 5564 5548 5534 5521 5506 5492 5479 5465 5453 5443 5435 5431 5431 5428 5426 5422 5420 5426 5445 5462 5486 5504 5521 5532
5749 5742 5734 5725 5718 5709 5704 5695 5695 5689 5683 5677 5669 5661 5654 5646 5637 5628 5619 5611 5604 5596 5584 5573 5562 5548 5533 5518 5504 5490 5476 5461 5445 5431 5427 5422 5420 5418 5416 5412 5409 5405 5414 5431 5442 5464 5480 5503 5514
5736 5731 5725 5710 5706 5699 5694 5685 5683 5678 5673 5662 5653 5643 5637 5630 5620 5612 5605 5598 5589 5579 5569 5558 5545 5532 5519 5505 5491 5474 5459 5443 5427 5414 5410 5407 5407 5406 5403 5399 5396 5393 5397 5412 5428 5446 5470 5491 5499
5723 5720 5714 5700 5691 5684 5681 5677 5661 5663 5654 5647 5636 5628 5621 5613 5603 5594 5587 5579 5570 5562 5552 5540 5529 5516 5502 5488 5476 5461 5444 5426 5408 5400 5394 5391 5389 5389 5390 5388 5385 5379 5389 5401 5413 5433 5451 5464 5481
5715 5707 5701 5691 5674 5668 5665 5662 5651 5652 5641 5635 5624 5616 5609 5602 5595 5584 5576 5565 5555 5546 5537 5523 5509 5496 5484 5471 5457 5443 5428 5408 5391 5385 5380 5373 5368 5368 5370 5372 5372 5372 5381 5390 5402 5419 5437 5447 5466
5702 5694 5688 5678 5667 5656 5643 5648 5647 5635 5628 5619 5611 5605 5599 5590 5580 5570 5562 5551 5542 5533 5521 5507 5493 5481 5469 5454 5441 5426 5408 5389 5377 5368 5359 5347 5339 5337 5345 5351 5357 5361 5370 5379 5389 5405 5420 5434 5457
5687 5681 5674 5662 5658 5643 5640 5622 5632 5622 5615 5603 5595 5590 5584 5576 5565 5555 5546 5537 5528 5518 5505 5493 5479 5465 5451 5437 5423 5407 5389 5372 5360 5350 5335 5321 5314 5310 5317 5326 5338 5345 5353 5364 5373 5390 5408 5422 5437